Time,TemperatureF,DewpointF,PressureIn,WindDirection,WindDirectionDegrees,WindSpeedMPH,WindSpeedGustMPH,Humidity,HourlyPrecipIn,Conditions,Clouds,dailyrainin,SoftwareType,DateUTC
2013-04-22 00:02:00,48.6,44.8,30.00,West,275,4.0,10.0,87,0.00,,,0.30,meteohub,2013-04-21 23:02:00,
2013-04-22 00:07:00,48.6,44.8,30.00,SW,226,8.0,10.0,87,0.00,,,0.00,meteohub,2013-04-21 23:07:00,
2013-04-22 00:12:00,48.4,44.4,29.99,WNW,292,4.0,11.0,86,0.00,,,0.00,meteohub,2013-04-21 23:12:00,
2013-04-22 00:17:00,48.4,44.1,29.99,NW,319,5.0,11.0,85,0.00,,,0.00,meteohub,2013-04-21 23:17:00,
2013-04-22 00:22:00,48.4,44.1,29.99,WNW,297,9.0,14.0,85,0.00,,,0.00,meteohub,2013-04-21 23:22:00,
2013-04-22 00:32:00,48.6,43.9,29.99,SW,233,9.0,14.0,84,0.00,,,0.00,meteohub,2013-04-21 23:32:00,
2013-04-22 00:37:00,48.6,43.9,29.98,WSW,242,11.0,15.0,84,0.00,,,0.00,meteohub,2013-04-21 23:37:00,
2013-04-22 00:47:00,48.6,43.9,29.97,WSW,239,11.0,16.0,84,0.00,,,0.00,meteohub,2013-04-21 23:47:00,
2013-04-22 00:52:00,48.6,43.9,29.98,SW,224,8.0,18.0,84,0.00,,,0.00,meteohub,2013-04-21 23:52:00,
2013-04-22 00:57:00,48.6,43.9,29.98,West,263,8.0,18.0,84,0.00,,,0.00,meteohub,2013-04-21 23:57:00,
2013-04-22 01:02:00,48.6,43.9,29.97,West,271,15.0,18.0,84,0.00,,,0.00,meteohub,2013-04-22 00:02:00,
2013-04-22 01:12:00,48.6,43.9,29.97,WNW,284,11.0,18.0,84,0.00,,,0.00,meteohub,2013-04-22 00:12:00,
2013-04-22 01:22:00,48.7,44.4,29.97,SSW,211,2.0,16.0,85,0.00,,,0.00,meteohub,2013-04-22 00:22:00,
2013-04-22 01:27:00,48.6,44.2,29.96,West,265,10.0,14.0,85,0.00,,,0.00,meteohub,2013-04-22 00:27:00,
2013-04-22 01:32:00,48.6,43.9,29.96,WSW,244,4.0,15.0,84,0.00,,,0.00,meteohub,2013-04-22 00:32:00,
2013-04-22 01:37:00,48.7,44.4,29.97,SW,231,4.0,15.0,85,0.00,,,0.00,meteohub,2013-04-22 00:37:00,
2013-04-22 01:42:00,48.7,44.4,29.97,WSW,256,2.0,15.0,85,0.00,,,0.00,meteohub,2013-04-22 00:42:00,
2013-04-22 01:47:00,48.7,44.4,29.97,West,259,6.0,15.0,85,0.00,,,0.00,meteohub,2013-04-22 00:47:00,
2013-04-22 01:52:00,48.7,44.8,29.96,SSW,208,5.0,13.0,86,0.00,,,0.00,meteohub,2013-04-22 00:52:00,
2013-04-22 01:57:00,48.7,44.8,29.96,SW,230,2.0,11.0,86,0.00,,,0.00,meteohub,2013-04-22 00:57:00,
2013-04-22 02:02:00,48.7,44.8,29.96,West,279,2.0,11.0,86,0.00,,,0.00,meteohub,2013-04-22 01:02:00,
2013-04-22 02:07:00,48.7,44.8,29.96,West,267,6.0,10.0,86,0.00,,,0.00,meteohub,2013-04-22 01:07:00,
2013-04-22 02:12:00,48.7,44.8,29.96,SW,226,2.0,10.0,86,0.00,,,0.00,meteohub,2013-04-22 01:12:00,
2013-04-22 02:17:00,48.6,44.8,29.95,WSW,240,2.0,10.0,87,0.00,,,0.00,meteohub,2013-04-22 01:17:00,
2013-04-22 02:22:00,48.6,44.8,29.95,SW,234,4.0,10.0,87,0.00,,,0.00,meteohub,2013-04-22 01:22:00,
2013-04-22 02:27:00,48.6,44.8,29.94,SW,223,1.0,10.0,87,0.00,,,0.00,meteohub,2013-04-22 01:27:00,
2013-04-22 02:32:00,48.6,44.8,29.94,SW,223,4.0,10.0,87,0.00,,,0.00,meteohub,2013-04-22 01:32:00,
2013-04-22 02:37:00,48.6,45.1,29.94,SW,228,2.0,10.0,88,0.00,,,0.00,meteohub,2013-04-22 01:37:00,
2013-04-22 02:42:00,48.7,45.3,29.93,SW,224,0.0,11.0,88,0.00,,,0.00,meteohub,2013-04-22 01:42:00,
2013-04-22 02:47:00,48.7,45.7,29.93,WSW,246,5.0,11.0,89,0.00,,,0.00,meteohub,2013-04-22 01:47:00,
2013-04-22 02:52:00,48.7,45.7,29.93,WSW,258,6.0,11.0,89,0.00,,,0.00,meteohub,2013-04-22 01:52:00,
2013-04-22 02:57:00,48.9,46.0,29.93,SSW,192,1.0,13.0,90,0.00,,,0.00,meteohub,2013-04-22 01:57:00,
2013-04-22 03:02:00,48.9,46.0,29.92,WSW,240,1.0,13.0,90,0.00,,,0.00,meteohub,2013-04-22 02:02:00,
2013-04-22 03:12:00,48.9,46.4,29.92,WSW,242,9.0,14.0,91,0.00,,,0.00,meteohub,2013-04-22 02:12:00,
2013-04-22 03:17:00,48.9,46.4,29.92,West,275,1.0,14.0,91,0.00,,,0.00,meteohub,2013-04-22 02:17:00,
2013-04-22 03:22:00,48.9,46.4,29.91,SW,217,4.0,14.0,91,0.00,,,0.00,meteohub,2013-04-22 02:22:00,
2013-04-22 03:27:00,49.1,46.9,29.91,WSW,250,4.0,14.0,92,0.00,,,0.00,meteohub,2013-04-22 02:27:00,
2013-04-22 03:32:00,49.1,46.9,29.91,WSW,252,11.0,14.0,92,0.00,,,0.00,meteohub,2013-04-22 02:32:00,
2013-04-22 03:42:00,49.1,46.9,29.91,South,190,4.0,16.0,92,0.00,,,0.00,meteohub,2013-04-22 02:42:00,
2013-04-22 03:47:00,49.1,46.9,29.91,WSW,244,5.0,16.0,92,0.00,,,0.00,meteohub,2013-04-22 02:47:00,
2013-04-22 03:57:00,49.5,47.3,29.91,West,271,5.0,16.0,92,0.00,,,0.00,meteohub,2013-04-22 02:57:00,
2013-04-22 04:02:00,49.5,47.3,29.90,SW,217,5.0,13.0,92,0.00,,,0.00,meteohub,2013-04-22 03:02:00,
2013-04-22 04:07:00,49.5,47.3,29.90,SW,217,10.0,13.0,92,0.00,,,0.00,meteohub,2013-04-22 03:07:00,
2013-04-22 04:17:00,49.5,47.3,29.89,SW,215,8.0,13.0,92,0.00,,,0.00,meteohub,2013-04-22 03:17:00,
2013-04-22 04:22:00,49.3,47.1,29.88,SW,219,4.0,13.0,92,0.00,,,0.00,meteohub,2013-04-22 03:22:00,
2013-04-22 04:27:00,49.3,47.1,29.89,SW,234,5.0,13.0,92,0.00,,,0.00,meteohub,2013-04-22 03:27:00,
2013-04-22 04:32:00,49.3,47.3,29.88,WSW,250,10.0,13.0,93,0.00,,,0.00,meteohub,2013-04-22 03:32:00,
2013-04-22 04:42:00,49.3,47.3,29.88,WSW,255,2.0,14.0,93,0.00,,,0.00,meteohub,2013-04-22 03:42:00,
2013-04-22 04:47:00,49.3,47.3,29.88,WSW,244,8.0,15.0,93,0.00,,,0.00,meteohub,2013-04-22 03:47:00,
2013-04-22 04:52:00,49.3,47.3,29.88,SSW,207,5.0,15.0,93,0.00,,,0.00,meteohub,2013-04-22 03:52:00,
2013-04-22 04:57:00,49.3,47.3,29.88,SW,225,6.0,15.0,93,0.00,,,0.00,meteohub,2013-04-22 03:57:00,
2013-04-22 05:02:00,49.3,47.3,29.88,WSW,244,6.0,14.0,93,0.00,,,0.00,meteohub,2013-04-22 04:02:00,
2013-04-22 05:07:00,49.3,47.3,29.88,SW,227,6.0,13.0,93,0.00,,,0.00,meteohub,2013-04-22 04:07:00,
2013-04-22 05:17:00,49.3,47.3,29.88,SSW,211,2.0,16.0,93,0.00,,,0.00,meteohub,2013-04-22 04:17:00,
2013-04-22 05:22:00,49.3,47.7,29.88,SW,223,6.0,16.0,94,0.00,,,0.00,meteohub,2013-04-22 04:22:00,
2013-04-22 05:27:00,49.3,47.7,29.87,SW,219,1.0,16.0,94,0.00,,,0.00,meteohub,2013-04-22 04:27:00,
2013-04-22 05:37:00,49.3,47.7,29.87,SW,236,4.0,15.0,94,0.00,,,0.00,meteohub,2013-04-22 04:37:00,
2013-04-22 05:42:00,49.5,47.8,29.87,SW,219,8.0,15.0,94,0.00,,,0.00,meteohub,2013-04-22 04:42:00,
2013-04-22 05:52:00,49.5,47.8,29.86,SSW,211,9.0,13.0,94,0.00,,,0.00,meteohub,2013-04-22 04:52:00,
2013-04-22 06:02:00,49.8,48.2,29.86,West,262,2.0,15.0,94,0.00,,,0.00,meteohub,2013-04-22 05:02:00,
2013-04-22 06:07:00,50.0,48.4,29.86,West,271,8.0,15.0,94,0.00,,,0.00,meteohub,2013-04-22 05:07:00,
2013-04-22 06:12:00,50.2,48.6,29.85,WSW,253,0.0,15.0,94,0.00,,,0.00,meteohub,2013-04-22 05:12:00,
2013-04-22 06:17:00,50.4,48.7,29.86,West,269,2.0,24.0,94,0.00,,,0.00,meteohub,2013-04-22 05:17:00,
2013-04-22 06:27:00,50.4,48.7,29.86,West,268,5.0,24.0,94,0.00,,,0.00,meteohub,2013-04-22 05:27:00,
2013-04-22 06:32:00,50.5,48.9,29.86,WSW,238,9.0,18.0,94,0.00,,,0.00,meteohub,2013-04-22 05:32:00,
2013-04-22 06:37:00,50.5,48.9,29.86,WNW,282,5.0,14.0,94,0.00,,,0.00,meteohub,2013-04-22 05:37:00,
2013-04-22 06:42:00,50.5,48.9,29.86,SSW,200,5.0,14.0,94,0.00,,,0.00,meteohub,2013-04-22 05:42:00,
2013-04-22 06:47:00,50.7,49.1,29.85,SW,233,4.0,14.0,94,0.00,,,0.00,meteohub,2013-04-22 05:47:00,
2013-04-22 06:52:00,50.7,49.1,29.85,WSW,238,2.0,14.0,94,0.00,,,0.00,meteohub,2013-04-22 05:52:00,
2013-04-22 06:57:00,50.7,49.1,29.85,West,275,5.0,16.0,94,0.00,,,0.00,meteohub,2013-04-22 05:57:00,
2013-04-22 07:02:00,50.9,49.3,29.85,SW,236,4.0,16.0,94,0.00,,,0.00,meteohub,2013-04-22 06:02:00,
2013-04-22 07:07:00,50.9,49.3,29.85,West,261,5.0,18.0,94,0.00,,,0.00,meteohub,2013-04-22 06:07:00,
2013-04-22 07:17:00,51.1,49.5,29.85,SW,221,8.0,18.0,94,0.00,,,0.00,meteohub,2013-04-22 06:17:00,
2013-04-22 07:22:00,51.1,49.5,29.85,SW,229,10.0,18.0,94,0.00,,,0.00,meteohub,2013-04-22 06:22:00,
2013-04-22 07:27:00,51.3,49.6,29.85,SW,236,6.0,18.0,94,0.00,,,0.00,meteohub,2013-04-22 06:27:00,
2013-04-22 07:32:00,51.3,49.6,29.85,West,263,11.0,15.0,94,0.00,,,0.00,meteohub,2013-04-22 06:32:00,
2013-04-22 07:37:00,51.3,49.6,29.85,WSW,253,2.0,16.0,94,0.00,,,0.00,meteohub,2013-04-22 06:37:00,
2013-04-22 07:42:00,51.3,49.6,29.85,WSW,247,5.0,16.0,94,0.00,,,0.00,meteohub,2013-04-22 06:42:00,
2013-04-22 07:47:00,51.4,49.8,29.85,West,267,5.0,15.0,94,0.00,,,0.00,meteohub,2013-04-22 06:47:00,
2013-04-22 07:52:00,51.4,49.8,29.85,SW,234,4.0,18.0,94,0.00,,,0.00,meteohub,2013-04-22 06:52:00,
2013-04-22 07:57:00,51.4,49.8,29.85,West,267,2.0,18.0,94,0.00,,,0.00,meteohub,2013-04-22 06:57:00,
2013-04-22 08:02:00,51.4,49.8,29.85,WSW,248,5.0,15.0,94,0.00,,,0.00,meteohub,2013-04-22 07:02:00,
2013-04-22 08:07:00,51.4,49.8,29.84,West,271,10.0,15.0,94,0.00,,,0.00,meteohub,2013-04-22 07:07:00,
2013-04-22 08:12:00,51.4,49.8,29.85,SW,223,4.0,19.0,94,0.00,,,0.00,meteohub,2013-04-22 07:12:00,
2013-04-22 08:22:00,51.4,49.8,29.85,WSW,246,5.0,19.0,94,0.00,,,0.00,meteohub,2013-04-22 07:22:00,
2013-04-22 08:32:00,51.4,49.8,29.85,WSW,239,6.0,16.0,94,0.00,,,0.00,meteohub,2013-04-22 07:32:00,
2013-04-22 08:37:00,51.4,49.8,29.85,WNW,286,4.0,16.0,94,0.00,,,0.00,meteohub,2013-04-22 07:37:00,
2013-04-22 08:42:00,51.4,49.8,29.86,WSW,243,8.0,16.0,94,0.00,,,0.00,meteohub,2013-04-22 07:42:00,
2013-04-22 08:52:00,51.4,50.0,29.86,West,281,9.0,25.0,95,0.00,,,0.00,meteohub,2013-04-22 07:52:00,
2013-04-22 08:57:00,51.4,50.0,29.86,WNW,286,9.0,25.0,95,0.00,,,0.00,meteohub,2013-04-22 07:57:00,
2013-04-22 09:02:00,51.4,50.0,29.85,South,173,6.0,25.0,95,0.00,,,0.00,meteohub,2013-04-22 08:02:00,
2013-04-22 09:07:00,51.3,49.8,29.85,NW,311,9.0,19.0,95,0.00,,,0.00,meteohub,2013-04-22 08:07:00,
2013-04-22 09:12:00,51.4,50.0,29.85,West,275,6.0,20.0,95,0.00,,,0.00,meteohub,2013-04-22 08:12:00,
2013-04-22 09:17:00,51.4,50.0,29.86,West,262,5.0,21.0,95,0.00,,,0.00,meteohub,2013-04-22 08:17:00,
2013-04-22 09:22:00,51.3,49.8,29.86,West,278,5.0,21.0,95,0.00,,,0.00,meteohub,2013-04-22 08:22:00,
2013-04-22 09:27:00,51.3,49.8,29.86,SW,230,11.0,16.0,95,0.00,,,0.00,meteohub,2013-04-22 08:27:00,
2013-04-22 09:32:00,51.4,50.0,29.86,WSW,254,15.0,16.0,95,0.00,,,0.00,meteohub,2013-04-22 08:32:00,
2013-04-22 09:37:00,51.4,50.0,29.86,West,276,8.0,20.0,95,0.00,,,0.00,meteohub,2013-04-22 08:37:00,
2013-04-22 09:42:00,51.6,50.2,29.86,SSW,207,13.0,24.0,95,0.00,,,0.00,meteohub,2013-04-22 08:42:00,
2013-04-22 09:47:00,52.0,50.5,29.86,SSW,207,8.0,24.0,95,0.00,,,0.00,meteohub,2013-04-22 08:47:00,
2013-04-22 09:52:00,52.0,50.5,29.86,West,265,6.0,21.0,95,0.00,,,0.00,meteohub,2013-04-22 08:52:00,
2013-04-22 09:57:00,52.2,51.1,29.86,WSW,237,10.0,21.0,96,0.00,,,0.00,meteohub,2013-04-22 08:57:00,
2013-04-22 10:02:00,52.3,51.3,29.86,WSW,241,14.0,21.0,96,0.00,,,0.00,meteohub,2013-04-22 09:02:00,
2013-04-22 10:07:00,52.3,51.3,29.86,WSW,242,11.0,20.0,96,0.00,,,0.00,meteohub,2013-04-22 09:07:00,
2013-04-22 10:12:00,52.3,51.3,29.86,WNW,295,11.0,20.0,96,0.00,,,0.00,meteohub,2013-04-22 09:12:00,
2013-04-22 10:17:00,52.5,51.4,29.86,West,273,4.0,20.0,96,0.00,,,0.00,meteohub,2013-04-22 09:17:00,
2013-04-22 10:22:00,52.9,51.8,29.86,WSW,247,9.0,20.0,96,0.00,,,0.00,meteohub,2013-04-22 09:22:00,
2013-04-22 10:27:00,52.9,51.8,29.86,WSW,256,8.0,16.0,96,0.00,,,0.00,meteohub,2013-04-22 09:27:00,
2013-04-22 10:32:00,52.9,51.8,29.86,WSW,252,6.0,19.0,96,0.00,,,0.00,meteohub,2013-04-22 09:32:00,
2013-04-22 10:37:00,52.9,51.4,29.86,WSW,247,6.0,19.0,95,0.00,,,0.00,meteohub,2013-04-22 09:37:00,
2013-04-22 10:42:00,52.7,51.3,29.86,SW,217,11.0,19.0,95,0.00,,,0.00,meteohub,2013-04-22 09:42:00,
2013-04-22 10:47:00,52.5,51.1,29.87,West,260,8.0,19.0,95,0.00,,,0.00,meteohub,2013-04-22 09:47:00,
2013-04-22 10:52:00,52.3,50.9,29.87,WSW,250,10.0,20.0,95,0.00,,,0.00,meteohub,2013-04-22 09:52:00,
2013-04-22 11:02:00,52.0,50.5,29.88,WSW,249,9.0,20.0,95,0.00,,,0.00,meteohub,2013-04-22 10:02:00,
2013-04-22 11:07:00,51.8,50.4,29.87,West,266,6.0,19.0,95,0.00,,,0.00,meteohub,2013-04-22 10:07:00,
2013-04-22 11:12:00,51.8,50.4,29.87,West,267,10.0,21.0,95,0.00,,,0.00,meteohub,2013-04-22 10:12:00,
2013-04-22 11:17:00,51.8,50.4,29.87,WSW,257,11.0,21.0,95,0.00,,,0.00,meteohub,2013-04-22 10:17:00,
2013-04-22 11:22:00,52.0,50.5,29.87,West,263,8.0,19.0,95,0.00,,,0.00,meteohub,2013-04-22 10:22:00,
2013-04-22 11:27:00,52.0,50.5,29.87,WNW,284,9.0,19.0,95,0.00,,,0.00,meteohub,2013-04-22 10:27:00,
2013-04-22 11:32:00,52.3,50.9,29.87,WSW,253,13.0,21.0,95,0.00,,,0.00,meteohub,2013-04-22 10:32:00,
2013-04-22 11:42:00,52.5,51.1,29.87,West,260,8.0,21.0,95,0.00,,,0.00,meteohub,2013-04-22 10:42:00,
2013-04-22 11:47:00,52.7,51.3,29.87,West,266,8.0,19.0,95,0.00,,,0.00,meteohub,2013-04-22 10:47:00,
2013-04-22 11:52:00,52.5,51.1,29.87,West,275,4.0,19.0,95,0.00,,,0.00,meteohub,2013-04-22 10:52:00,
2013-04-22 11:57:00,52.5,51.1,29.88,WSW,241,5.0,19.0,95,0.00,,,0.00,meteohub,2013-04-22 10:57:00,
2013-04-22 12:02:00,52.3,50.9,29.87,WSW,252,6.0,18.0,95,0.00,,,0.00,meteohub,2013-04-22 11:02:00,
2013-04-22 12:07:00,52.3,50.9,29.88,West,278,4.0,18.0,95,0.00,,,0.00,meteohub,2013-04-22 11:07:00,
2013-04-22 12:17:00,52.5,51.1,29.88,WSW,255,10.0,21.0,95,0.00,,,0.00,meteohub,2013-04-22 11:17:00,
2013-04-22 12:22:00,52.5,51.1,29.89,West,269,10.0,21.0,95,0.00,,,0.00,meteohub,2013-04-22 11:22:00,
2013-04-22 12:32:00,52.5,51.1,29.90,WSW,247,10.0,19.0,95,0.00,,,0.00,meteohub,2013-04-22 11:32:00,
2013-04-22 12:37:00,52.9,51.3,29.89,West,267,10.0,18.0,94,0.00,,,0.00,meteohub,2013-04-22 11:37:00,
2013-04-22 12:47:00,53.1,51.4,29.89,West,259,8.0,21.0,94,0.00,,,0.00,meteohub,2013-04-22 11:47:00,
2013-04-22 12:52:00,53.2,51.6,29.89,West,263,8.0,21.0,94,0.00,,,0.00,meteohub,2013-04-22 11:52:00,
2013-04-22 13:02:00,53.6,51.6,29.89,SW,236,13.0,24.0,93,0.00,,,0.00,meteohub,2013-04-22 12:02:00,
2013-04-22 13:07:00,53.4,51.1,29.89,WSW,241,8.0,24.0,92,0.00,,,0.00,meteohub,2013-04-22 12:07:00,
2013-04-22 13:12:00,53.4,51.1,29.89,WSW,244,9.0,21.0,92,0.00,,,0.00,meteohub,2013-04-22 12:12:00,
2013-04-22 13:17:00,53.6,51.3,29.89,WSW,256,15.0,21.0,92,0.00,,,0.00,meteohub,2013-04-22 12:17:00,
2013-04-22 13:22:00,53.4,50.9,29.89,West,259,13.0,24.0,91,0.00,,,0.00,meteohub,2013-04-22 12:22:00,
2013-04-22 13:27:00,53.4,50.9,29.90,SW,234,11.0,24.0,91,0.00,,,0.00,meteohub,2013-04-22 12:27:00,
2013-04-22 13:32:00,53.2,50.4,29.90,WSW,254,13.0,24.0,90,0.00,,,0.00,meteohub,2013-04-22 12:32:00,
2013-04-22 13:37:00,53.4,50.5,29.90,WSW,258,9.0,21.0,90,0.00,,,0.00,meteohub,2013-04-22 12:37:00,
2013-04-22 13:47:00,53.4,50.2,29.90,WSW,244,15.0,22.0,89,0.00,,,0.00,meteohub,2013-04-22 12:47:00,
2013-04-22 13:52:00,53.2,50.0,29.90,West,268,6.0,22.0,89,0.00,,,0.00,meteohub,2013-04-22 12:52:00,
2013-04-22 13:57:00,53.2,50.0,29.91,West,259,15.0,20.0,89,0.00,,,0.00,meteohub,2013-04-22 12:57:00,
2013-04-22 14:02:00,53.2,50.0,29.91,WNW,298,10.0,21.0,89,0.00,,,0.00,meteohub,2013-04-22 13:02:00,
2013-04-22 14:12:00,53.6,50.4,29.91,West,275,13.0,21.0,89,0.00,,,0.00,meteohub,2013-04-22 13:12:00,
2013-04-22 14:17:00,53.4,50.2,29.91,WSW,258,16.0,21.0,89,0.00,,,0.00,meteohub,2013-04-22 13:17:00,
2013-04-22 14:27:00,53.6,50.4,29.91,WNW,284,19.0,20.0,89,0.00,,,0.00,meteohub,2013-04-22 13:27:00,
2013-04-22 14:32:00,53.6,50.2,29.91,WSW,241,18.0,22.0,88,0.00,,,0.00,meteohub,2013-04-22 13:32:00,
2013-04-22 14:37:00,53.4,50.0,29.91,West,269,8.0,26.0,88,0.00,,,0.00,meteohub,2013-04-22 13:37:00,
2013-04-22 14:42:00,53.2,49.8,29.91,SW,224,15.0,26.0,88,0.00,,,0.00,meteohub,2013-04-22 13:42:00,
2013-04-22 14:47:00,53.4,50.0,29.91,West,274,13.0,26.0,88,0.00,,,0.00,meteohub,2013-04-22 13:47:00,
2013-04-22 14:57:00,53.2,49.8,29.91,WSW,249,11.0,25.0,88,0.00,,,0.00,meteohub,2013-04-22 13:57:00,
2013-04-22 15:07:00,53.8,50.4,29.91,WSW,240,10.0,22.0,88,0.00,,,0.00,meteohub,2013-04-22 14:07:00,
2013-04-22 15:12:00,54.1,50.4,29.91,SW,233,15.0,22.0,87,0.00,,,0.00,meteohub,2013-04-22 14:12:00,
2013-04-22 15:17:00,54.1,50.4,29.91,West,266,14.0,21.0,87,0.00,,,0.00,meteohub,2013-04-22 14:17:00,
2013-04-22 15:22:00,54.1,50.4,29.92,West,260,10.0,22.0,87,0.00,,,0.00,meteohub,2013-04-22 14:22:00,
2013-04-22 15:32:00,54.0,50.2,29.92,WSW,257,14.0,24.0,87,0.00,,,0.00,meteohub,2013-04-22 14:32:00,
2013-04-22 15:37:00,54.1,50.4,29.92,West,261,16.0,25.0,87,0.00,,,0.00,meteohub,2013-04-22 14:37:00,
2013-04-22 15:47:00,54.3,50.2,29.91,WSW,240,8.0,25.0,86,0.00,,,0.00,meteohub,2013-04-22 14:47:00,
2013-04-22 15:57:00,54.3,50.2,29.91,West,273,9.0,25.0,86,0.00,,,0.00,meteohub,2013-04-22 14:57:00,
2013-04-22 16:02:00,54.9,50.4,29.92,WNW,288,15.0,25.0,85,0.00,,,0.00,meteohub,2013-04-22 15:02:00,
2013-04-22 16:07:00,55.0,50.5,29.92,SW,227,11.0,25.0,85,0.00,,,0.00,meteohub,2013-04-22 15:07:00,
2013-04-22 16:12:00,55.4,50.7,29.92,SW,217,11.0,26.0,84,0.00,,,0.00,meteohub,2013-04-22 15:12:00,
2013-04-22 16:17:00,55.2,50.5,29.93,West,263,8.0,26.0,84,0.00,,,0.00,meteohub,2013-04-22 15:17:00,
2013-04-22 16:22:00,55.2,50.5,29.92,West,275,5.0,20.0,84,0.00,,,0.00,meteohub,2013-04-22 15:22:00,
2013-04-22 16:27:00,55.0,50.4,29.93,WNW,288,9.0,20.0,84,0.00,,,0.00,meteohub,2013-04-22 15:27:00,
2013-04-22 16:32:00,55.2,50.7,29.93,WSW,253,10.0,20.0,85,0.00,,,0.00,meteohub,2013-04-22 15:32:00,
2013-04-22 16:42:00,55.0,50.4,29.93,West,259,9.0,20.0,84,0.00,,,0.00,meteohub,2013-04-22 15:42:00,
2013-04-22 16:47:00,55.2,50.5,29.93,SW,223,11.0,20.0,84,0.00,,,0.00,meteohub,2013-04-22 15:47:00,
2013-04-22 16:52:00,55.0,50.4,29.93,SW,221,9.0,20.0,84,0.00,,,0.00,meteohub,2013-04-22 15:52:00,
2013-04-22 16:57:00,55.0,50.4,29.93,SW,229,9.0,20.0,84,0.00,,,0.00,meteohub,2013-04-22 15:57:00,
2013-04-22 17:02:00,54.9,50.2,29.94,WSW,244,10.0,19.0,84,0.00,,,0.00,meteohub,2013-04-22 16:02:00,
2013-04-22 17:12:00,54.5,50.0,29.93,South,189,10.0,19.0,85,0.00,,,0.00,meteohub,2013-04-22 16:12:00,
2013-04-22 17:17:00,54.9,50.4,29.94,WNW,302,10.0,20.0,85,0.00,,,0.00,meteohub,2013-04-22 16:17:00,
2013-04-22 17:22:00,55.0,50.4,29.93,West,266,10.0,21.0,84,0.00,,,0.00,meteohub,2013-04-22 16:22:00,
2013-04-22 17:27:00,54.5,49.8,29.93,WSW,249,18.0,21.0,84,0.00,,,0.00,meteohub,2013-04-22 16:27:00,
2013-04-22 17:32:00,54.3,49.8,29.93,West,263,10.0,21.0,85,0.00,,,0.00,meteohub,2013-04-22 16:32:00,
2013-04-22 17:37:00,54.3,49.8,29.93,SW,235,9.0,22.0,85,0.00,,,0.00,meteohub,2013-04-22 16:37:00,
2013-04-22 17:42:00,54.3,50.2,29.93,WSW,242,9.0,22.0,86,0.00,,,0.00,meteohub,2013-04-22 16:42:00,
2013-04-22 17:52:00,54.3,49.8,29.93,West,261,10.0,22.0,85,0.00,,,0.00,meteohub,2013-04-22 16:52:00,
2013-04-22 17:57:00,54.0,49.8,29.93,SW,231,10.0,22.0,86,0.00,,,0.00,meteohub,2013-04-22 16:57:00,
2013-04-22 18:02:00,53.6,49.5,29.93,WSW,257,5.0,24.0,86,0.00,,,0.00,meteohub,2013-04-22 17:02:00,
2013-04-22 18:07:00,53.4,49.3,29.94,WSW,247,10.0,24.0,86,0.00,,,0.00,meteohub,2013-04-22 17:07:00,
2013-04-22 18:17:00,53.4,49.6,29.94,West,259,10.0,21.0,87,0.00,,,0.00,meteohub,2013-04-22 17:17:00,
2013-04-22 18:22:00,53.2,49.5,29.94,WSW,242,6.0,21.0,87,0.00,,,0.00,meteohub,2013-04-22 17:22:00,
2013-04-22 18:27:00,53.1,49.3,29.94,West,261,13.0,21.0,87,0.00,,,0.00,meteohub,2013-04-22 17:27:00,
2013-04-22 18:32:00,53.1,49.3,29.94,WSW,240,15.0,24.0,87,0.00,,,0.00,meteohub,2013-04-22 17:32:00,
2013-04-22 18:37:00,53.1,49.3,29.94,SW,221,11.0,24.0,87,0.00,,,0.00,meteohub,2013-04-22 17:37:00,
2013-04-22 18:42:00,53.1,49.3,29.94,WSW,250,6.0,24.0,87,0.00,,,0.00,meteohub,2013-04-22 17:42:00,
2013-04-22 18:52:00,52.5,49.1,29.95,WSW,241,18.0,26.0,88,0.00,,,0.00,meteohub,2013-04-22 17:52:00,
2013-04-22 18:57:00,52.5,49.1,29.96,West,260,11.0,26.0,88,0.00,,,0.00,meteohub,2013-04-22 17:57:00,
2013-04-22 19:02:00,52.5,49.1,29.96,West,270,8.0,22.0,88,0.00,,,0.00,meteohub,2013-04-22 18:02:00,
2013-04-22 19:07:00,52.3,48.9,29.96,SW,218,11.0,22.0,88,0.00,,,0.00,meteohub,2013-04-22 18:07:00,
2013-04-22 19:17:00,52.2,49.1,29.96,WSW,251,8.0,21.0,89,0.00,,,0.00,meteohub,2013-04-22 18:17:00,
2013-04-22 19:22:00,52.2,49.1,29.96,WSW,254,13.0,21.0,89,0.00,,,0.00,meteohub,2013-04-22 18:22:00,
2013-04-22 19:27:00,52.2,49.1,29.96,WSW,241,11.0,20.0,89,0.00,,,0.00,meteohub,2013-04-22 18:27:00,
2013-04-22 19:37:00,52.2,49.1,29.96,WSW,244,9.0,19.0,89,0.00,,,0.00,meteohub,2013-04-22 18:37:00,
2013-04-22 19:47:00,52.0,48.9,29.96,West,267,8.0,20.0,89,0.00,,,0.00,meteohub,2013-04-22 18:47:00,
2013-04-22 19:57:00,52.0,49.1,29.97,West,259,6.0,20.0,90,0.00,,,0.00,meteohub,2013-04-22 18:57:00,
2013-04-22 20:02:00,52.0,49.1,29.97,WSW,254,13.0,20.0,90,0.00,,,0.00,meteohub,2013-04-22 19:02:00,
2013-04-22 20:07:00,51.8,48.9,29.98,WSW,239,10.0,18.0,90,0.00,,,0.00,meteohub,2013-04-22 19:07:00,
2013-04-22 20:12:00,51.8,48.9,29.98,WSW,254,8.0,18.0,90,0.00,,,0.00,meteohub,2013-04-22 19:12:00,
2013-04-22 20:22:00,51.6,48.7,29.98,WSW,258,9.0,18.0,90,0.00,,,0.00,meteohub,2013-04-22 19:22:00,
2013-04-22 20:32:00,51.4,48.6,29.98,WSW,238,4.0,15.0,90,0.00,,,0.00,meteohub,2013-04-22 19:32:00,
2013-04-22 20:37:00,51.4,48.6,29.98,WSW,238,6.0,14.0,90,0.00,,,0.00,meteohub,2013-04-22 19:37:00,
2013-04-22 20:42:00,51.4,48.6,29.98,WSW,242,5.0,16.0,90,0.00,,,0.00,meteohub,2013-04-22 19:42:00,
2013-04-22 20:47:00,51.4,48.6,29.98,WSW,250,4.0,16.0,90,0.00,,,0.00,meteohub,2013-04-22 19:47:00,
2013-04-22 20:52:00,51.3,48.4,29.98,WSW,250,1.0,16.0,90,0.00,,,0.00,meteohub,2013-04-22 19:52:00,
2013-04-22 21:02:00,51.1,48.6,29.98,WNW,299,1.0,13.0,91,0.00,,,0.00,meteohub,2013-04-22 20:02:00,
2013-04-22 21:07:00,51.1,48.6,29.99,WSW,257,5.0,13.0,91,0.00,,,0.00,meteohub,2013-04-22 20:07:00,
2013-04-22 21:12:00,50.9,48.4,29.99,SSW,198,6.0,13.0,91,0.00,,,0.00,meteohub,2013-04-22 20:12:00,
2013-04-22 21:17:00,50.7,48.2,29.98,WSW,248,5.0,14.0,91,0.00,,,0.00,meteohub,2013-04-22 20:17:00,
2013-04-22 21:22:00,50.7,48.2,29.99,WNW,289,2.0,14.0,91,0.00,,,0.00,meteohub,2013-04-22 20:22:00,
2013-04-22 21:32:00,50.5,48.0,29.99,NW,320,5.0,11.0,91,0.00,,,0.00,meteohub,2013-04-22 20:32:00,
2013-04-22 21:37:00,50.4,47.8,29.99,West,267,11.0,11.0,91,0.00,,,0.00,meteohub,2013-04-22 20:37:00,
2013-04-22 21:42:00,50.4,48.2,29.99,NW,306,5.0,11.0,92,0.00,,,0.00,meteohub,2013-04-22 20:42:00,
2013-04-22 21:47:00,50.2,48.0,29.99,West,262,2.0,11.0,92,0.00,,,0.00,meteohub,2013-04-22 20:47:00,
2013-04-22 21:52:00,50.2,48.0,29.99,WNW,293,6.0,11.0,92,0.00,,,0.00,meteohub,2013-04-22 20:52:00,
2013-04-22 22:02:00,50.2,48.0,29.99,NNW,345,5.0,10.0,92,0.00,,,0.00,meteohub,2013-04-22 21:02:00,
2013-04-22 22:07:00,50.2,48.0,29.99,WNW,283,6.0,10.0,92,0.00,,,0.00,meteohub,2013-04-22 21:07:00,